• In Moldova, Republic
  • List of Countries
  • For 7 days
  • Water Temperature
  • Satellite Maps
  • Weather Map
  • Weather Widgets
  • user-avatar
    Login

    Hourly Weather Salzburg

    Today, 23 July, Sunday

    Time Temperature Precipitation Wind Pressure Humidity
    00:00 +12°C° 0.1 mm 1 mps 628 mmHg 91%
    01:00 +11°C° 0.1 mm 1 mps 628 mmHg 91%
    02:00 +11°C° 0.3 mm 1 mps 628 mmHg 92%
    03:00 +11°C° 0.3 mm 1 mps 628 mmHg 92%
    04:00 +11°C° 0.3 mm 1 mps 628 mmHg 93%
    05:00 +12°C° 0.2 mm 1 mps 628 mmHg 92%
    06:00 +13°C° 0.2 mm 1 mps 629 mmHg 91%
    07:00 +14°C° 0.2 mm 1 mps 629 mmHg 91%
    08:00 +15°C° 0.1 mm 1 mps 630 mmHg 82%
    09:00 +18°C° 0.1 mm 1 mps 630 mmHg 73%
    10:00 +19°C° 0.1 mm 1 mps 631 mmHg 64%
    11:00 +19°C° 0.6 mm 1 mps 630 mmHg 70%
    12:00 +18°C° 0.6 mm 1 mps 630 mmHg 76%
    13:00 +17°C° 0.6 mm 2 mps 630 mmHg 82%
    14:00 +16°C° 0.9 mm 1 mps 630 mmHg 86%
    15:00 +15°C° 0.9 mm 1 mps 629 mmHg 89%
    16:00 +15°C° 0.9 mm 1 mps 629 mmHg 93%
    17:00 +14°C° 0.9 mm 1 mps 629 mmHg 94%
    18:00 +14°C° 0.9 mm 1 mps 629 mmHg 96%
    19:00 +13°C° 0.9 mm 1 mps 629 mmHg 97%
    20:00 +13°C° 1.2 mm 1 mps 628 mmHg 97%
    21:00 +12°C° 1.2 mm 1 mps 628 mmHg 97%
    22:00 +12°C° 1.2 mm 1 mps 628 mmHg 98%
    23:00 +12°C° 0.2 mm 1 mps 628 mmHg 98%

    Tomorrow, 24 July, Monday

    Time Temperature Precipitation Wind Pressure Humidity
    00:00 +11°C° 0.2 mm 1 mps 628 mmHg 98%
    01:00 +10°C° 0.2 mm 0 mps 627 mmHg 98%
    02:00 +10°C° 1 mm 0 mps 627 mmHg 98%
    03:00 +10°C° 1 mm 0 mps 626 mmHg 98%
    04:00 +10°C° 1 mm 0 mps 626 mmHg 98%
    05:00 +10°C° 1.7 mm 0 mps 625 mmHg 98%
    06:00 +11°C° 1.7 mm 1 mps 625 mmHg 97%
    07:00 +12°C° 1.7 mm 1 mps 625 mmHg 97%
    08:00 +12°C° 0.9 mm 1 mps 625 mmHg 96%
    09:00 +12°C° 0.9 mm 1 mps 624 mmHg 96%
    10:00 +13°C° 0.9 mm 1 mps 624 mmHg 95%
    11:00 +12°C° 2 mm 1 mps 624 mmHg 95%
    12:00 +12°C° 2 mm 1 mps 623 mmHg 96%
    13:00 +12°C° 2 mm 1 mps 623 mmHg 96%
    14:00 +10°C° 2.6 mm 2 mps 623 mmHg 96%
    15:00 +9°C° 2.6 mm 2 mps 622 mmHg 97%
    16:00 +9°C° 2.6 mm 3 mps 622 mmHg 97%
    17:00 +8°C° 2.3 mm 3 mps 622 mmHg 97%
    18:00 +7°C° 2.3 mm 3 mps 622 mmHg 97%
    19:00 +7°C° 2.3 mm 2 mps 622 mmHg 97%
    20:00 +6°C° 0.4 mm 2 mps 622 mmHg 97%
    21:00 +6°C° 0.4 mm 2 mps 622 mmHg 96%
    22:00 +6°C° 0.4 mm 2 mps 622 mmHg 96%
    23:00 +5°C° 0 mm 2 mps 622 mmHg 96%

    Day after tomorrow, 25 July, Tuesday

    Time Temperature Precipitation Wind Pressure Humidity
    00:00 +5°C° 0 mm 2 mps 622 mmHg 95%
    01:00 +4°C° 0 mm 2 mps 621 mmHg 95%
    02:00 +4°C° 0 mm 2 mps 621 mmHg 95%
    03:00 +4°C° 0 mm 2 mps 621 mmHg 95%
    04:00 +3°C° 0 mm 2 mps 621 mmHg 95%
    05:00 +4°C° 0 mm 2 mps 621 mmHg 93%
    06:00 +5°C° 0 mm 2 mps 621 mmHg 91%
    07:00 +6°C° 0 mm 2 mps 621 mmHg 89%
    08:00 +7°C° 0 mm 2 mps 622 mmHg 82%
    09:00 +8°C° 0 mm 2 mps 622 mmHg 74%
    10:00 +10°C° 0 mm 2 mps 622 mmHg 66%
    11:00 +10°C° 0.1 mm 2 mps 622 mmHg 63%
    12:00 +12°C° 0.1 mm 2 mps 622 mmHg 61%
    13:00 +13°C° 0.1 mm 2 mps 622 mmHg 58%
    14:00 +13°C° 0.2 mm 2 mps 622 mmHg 60%
    15:00 +13°C° 0.2 mm 2 mps 622 mmHg 62%
    16:00 +13°C° 0.2 mm 2 mps 622 mmHg 64%
    17:00 +10°C° 0.3 mm 2 mps 622 mmHg 72%
    18:00 +9°C° 0.3 mm 2 mps 621 mmHg 80%
    19:00 +9°C° 0.3 mm 1 mps 621 mmHg 88%
    20:00 +8°C° 0.1 mm 1 mps 621 mmHg 91%
    21:00 +7°C° 0.1 mm 1 mps 621 mmHg 94%
    22:00 +5°C° 0.1 mm 1 mps 621 mmHg 96%
    23:00 +5°C° 0 mm 1 mps 621 mmHg 96%

    26 July, Wednesday

    Time Temperature Precipitation Wind Pressure Humidity
    00:00 +5°C° 0 mm 1 mps 621 mmHg 97%
    01:00 +5°C° 0 mm 1 mps 620 mmHg 97%
    02:00 +5°C° 0 mm 1 mps 621 mmHg 97%
    03:00 +5°C° 0 mm 1 mps 621 mmHg 97%
    04:00 +5°C° 0 mm 1 mps 621 mmHg 97%
    05:00 +5°C° 0.1 mm 2 mps 621 mmHg 95%
    06:00 +5°C° 0.1 mm 2 mps 621 mmHg 93%
    07:00 +6°C° 0.1 mm 2 mps 621 mmHg 91%
    08:00 +7°C° 0.1 mm 2 mps 622 mmHg 84%
    09:00 +9°C° 0.1 mm 2 mps 622 mmHg 77%
    10:00 +10°C° 0.1 mm 2 mps 623 mmHg 70%
    11:00 +11°C° 0.2 mm 3 mps 623 mmHg 69%
    12:00 +11°C° 0.2 mm 3 mps 623 mmHg 68%
    13:00 +12°C° 0.2 mm 3 mps 623 mmHg 66%
    14:00 +11°C° 0.3 mm 3 mps 624 mmHg 70%
    15:00 +11°C° 0.3 mm 3 mps 624 mmHg 74%
    16:00 +10°C° 0.3 mm 3 mps 624 mmHg 78%
    17:00 +9°C° 0.7 mm 3 mps 624 mmHg 83%
    18:00 +8°C° 0.7 mm 2 mps 624 mmHg 88%
    19:00 +7°C° 0.7 mm 2 mps 624 mmHg 93%
    20:00 +7°C° 1.1 mm 2 mps 624 mmHg 94%
    21:00 +6°C° 1.1 mm 2 mps 624 mmHg 95%
    22:00 +6°C° 1.1 mm 2 mps 625 mmHg 96%
    23:00 +6°C° 0.8 mm 2 mps 625 mmHg 96%

    27 July, Thursday

    Time Temperature Precipitation Wind Pressure Humidity
    00:00 +6°C° 0.8 mm 2 mps 625 mmHg 96%
    01:00 +5°C° 0.8 mm 2 mps 625 mmHg 96%
    02:00 +5°C° 0.1 mm 2 mps 625 mmHg 96%
    03:00 +5°C° 0.1 mm 2 mps 625 mmHg 96%
    04:00 +5°C° 0.1 mm 2 mps 625 mmHg 96%
    05:00 +5°C° 0.2 mm 2 mps 625 mmHg 96%
    06:00 +6°C° 0.2 mm 2 mps 626 mmHg 95%
    07:00 +6°C° 0.2 mm 2 mps 626 mmHg 94%
    08:00 +9°C° 0.2 mm 1 mps 626 mmHg 90%
    09:00 +10°C° 0.2 mm 1 mps 627 mmHg 86%
    10:00 +11°C° 0.2 mm 1 mps 628 mmHg 82%
    11:00 +13°C° 0 mm 1 mps 628 mmHg 75%
    12:00 +15°C° 0 mm 1 mps 628 mmHg 67%
    13:00 +16°C° 0 mm 2 mps 629 mmHg 60%
    14:00 +16°C° 0 mm 1 mps 629 mmHg 59%
    15:00 +16°C° 0 mm 1 mps 629 mmHg 59%
    16:00 +18°C° 0 mm 1 mps 629 mmHg 59%
    17:00 +15°C° 0 mm 1 mps 628 mmHg 67%
    18:00 +14°C° 0 mm 1 mps 628 mmHg 75%
    19:00 +13°C° 0 mm 1 mps 628 mmHg 82%
    20:00 +11°C° 0 mm 1 mps 627 mmHg 86%
    21:00 +10°C° 0 mm 1 mps 627 mmHg 90%
    22:00 +8°C° 0 mm 1 mps 627 mmHg 94%
    23:00 +8°C° 0 mm 1 mps 627 mmHg 94%

    28 July, Friday

    Time Temperature Precipitation Wind Pressure Humidity
    00:00 +8°C° 0 mm 1 mps 627 mmHg 94%
    01:00 +8°C° 0 mm 1 mps 627 mmHg 94%
    02:00 +7°C° 0 mm 1 mps 627 mmHg 93%
    03:00 +7°C° 0 mm 1 mps 627 mmHg 91%
    04:00 +7°C° 0 mm 1 mps 627 mmHg 90%
    05:00 +9°C° 0 mm 1 mps 627 mmHg 84%
    06:00 +11°C° 0 mm 1 mps 628 mmHg 79%
    07:00 +12°C° 0 mm 1 mps 629 mmHg 73%
    08:00 +15°C° 0 mm 1 mps 630 mmHg 64%
    09:00 +18°C° 0 mm 1 mps 630 mmHg 55%
    10:00 +20°C° 0 mm 1 mps 631 mmHg 46%
    11:00 +21°C° 0 mm 1 mps 631 mmHg 44%
    12:00 +22°C° 0 mm 1 mps 631 mmHg 43%
    13:00 +23°C° 0 mm 1 mps 631 mmHg 41%
    14:00 +22°C° 0 mm 1 mps 631 mmHg 45%
    15:00 +22°C° 0 mm 1 mps 631 mmHg 48%
    16:00 +22°C° 0 mm 1 mps 631 mmHg 51%
    17:00 +20°C° 0.4 mm 1 mps 630 mmHg 63%
    18:00 +18°C° 0.4 mm 1 mps 630 mmHg 75%
    19:00 +15°C° 0.4 mm 1 mps 630 mmHg 87%
    20:00 +14°C° 0.3 mm 1 mps 630 mmHg 89%
    21:00 +13°C° 0.3 mm 1 mps 630 mmHg 92%
    22:00 +12°C° 0.3 mm 1 mps 630 mmHg 95%
    23:00 +12°C° 0.1 mm 1 mps 630 mmHg 95%
    Show more